This is the latest recevied weather packets stored in our database for station/object WP3OF-5. If no packets are shown the sender has not sent any weather packets the latest 10 day(s).
| Time | Temp. | Humidity | Pressure | Rain* | Wind** | Luminosity | Snow |
|---|---|---|---|---|---|---|---|
| 1777382917 | 26.11° C | 82% | 1017.6 hPa | 0 mm | - | - | - |
| 1777382613 | 26.11° C | 82% | 1017.5 hPa | 0 mm | - | - | - |
| 1777382309 | 26.11° C | 82% | 1017.4 hPa | 0 mm | - | - | - |
| 1777382006 | 26.11° C | 81% | 1017.5 hPa | 0 mm | - | - | - |
| 1777381706 | 25.56° C | 82% | 1017.5 hPa | 0 mm | - | - | - |
| 1777381401 | 26.11° C | 81% | 1017.4 hPa | 0 mm | - | - | - |
| 1777381099 | 26.11° C | 81% | 1017.4 hPa | 0 mm | - | - | - |
| 1777380795 | 25.56° C | 85% | 1017.1 hPa | 0 mm | - | - | - |
| 1777380492 | 25° C | 86% | 1017.2 hPa | 0 mm | - | - | - |
| 1777380189 | 25° C | 85% | 1017.4 hPa | 0 mm | - | - | - |
| 1777379885 | 25.56° C | 87% | 1017.2 hPa | 0 mm | - | - | - |
| 1777379581 | 25° C | 86% | 1017.2 hPa | 0 mm | - | - | - |
| 1777379276 | 24.44° C | 88% | 1017.5 hPa | 0 mm | - | - | - |
| 1777378976 | 24.44° C | 88% | 1017.2 hPa | 0 mm | - | - | - |
| 1777378672 | 24.44° C | 90% | 1017.2 hPa | 0 mm | - | - | - |
| 1777378369 | 23.89° C | 90% | 1017.3 hPa | 0 mm | - | - | - |
| 1777378063 | 23.89° C | 92% | 1017.1 hPa | 0 mm | - | - | - |
| 1777377758 | 23.33° C | 93% | 1017.3 hPa | 0 mm | - | - | - |
| 1777377452 | 23.33° C | 94% | 1017 hPa | 0 mm | - | - | - |
| 1777377148 | 23.33° C | 95% | 1017.3 hPa | 0 mm | - | - | - |
| 1777376846 | 22.78° C | 96% | 1017.1 hPa | 0 mm | - | - | - |
| 1777376543 | 22.78° C | 96% | 1017.1 hPa | 0 mm | - | - | - |
| 1777376240 | 22.78° C | 97% | 1017 hPa | 0 mm | - | - | - |
| 1777375934 | 22.78° C | 97% | 1016.9 hPa | 0 mm | - | - | - |
| 1777375629 | 22.78° C | 97% | 1016.8 hPa | 0 mm | - | - | - |
* Rain latest hour (hover to see other rain measurements)
** Current wind speed in m/s (hover to see current wind gust speed)